CW7395 Weather Reports


time (UTC)temp
F
wind
direction
speed
knots
gust
knots
rain 1hr
in
rain 24hr
in
rain mn
in
humidity
%
barometer
mb
20260507052515 55 0 0.0 0.0 0.00 0.00 0.00 87 1020.0
20260507052012 55 0 0.0 0.0 0.00 0.00 0.00 87 1020.0
20260507051532 55 0 0.0 0.0 0.00 0.00 0.00 87 1020.1
20260507051015 55 0 0.0 0.9 0.00 0.00 0.00 87 1020.1
20260507050516 55 0 0.0 0.9 0.00 0.00 0.00 87 1020.1
20260507050038 55 0 0.0 0.0 0.00 0.00 0.00 87 1020.1
20260507045515 55 0 0.0 0.0 0.00 0.00 0.00 86 1020.1
20260507045017 55 0 0.0 0.0 0.00 0.00 0.00 86 1020.1
20260507044536 56 0 0.0 0.9 0.00 0.00 0.00 86 1020.1
20260507044013 56 0 0.0 0.9 0.00 0.00 0.00 86 1020.0
20260507043514 56 0 0.0 0.0 0.00 0.00 0.00 86 1020.0
20260507043034 56 0 0.0 0.0 0.00 0.00 0.00 85 1020.0
20260507042513 56 0 0.0 0.0 0.00 0.00 0.00 85 1020.0
20260507042015 56 0 0.0 0.0 0.00 0.00 0.00 85 1019.9
20260507041540 56 0 0.0 0.0 0.00 0.00 0.00 85 1019.7
20260507041013 56 0 0.0 0.0 0.00 0.00 0.00 85 1019.8
20260507040516 57 0 0.0 0.0 0.00 0.00 0.00 84 1019.8
20260507040034 57 0 0.0 0.0 0.00 0.00 0.00 84 1019.7
20260507035513 57 0 0.0 0.0 0.00 0.00 0.00 84 1019.6
20260507035012 57 0 0.0 0.0 0.00 0.00 0.00 84 1019.7
20260507034533 57 0 0.0 0.0 0.00 0.00 0.00 83 1019.7
20260507034016 58 0 0.0 0.0 0.00 0.00 0.00 83 1019.5
20260507033518 58 0 0.0 0.0 0.00 0.00 0.00 82 1019.5
20260507033034 58 0 0.0 0.0 0.00 0.00 0.00 82 1019.5
20260507032513 58 0 0.0 0.0 0.00 0.00 0.00 81 1019.5
20260507032013 59 0 0.0 0.0 0.00 0.00 0.00 81 1019.4
20260507031532 59 0 0.0 0.0 0.00 0.00 0.00 80 1019.4
20260507031015 59 0 0.0 1.7 0.00 0.00 0.00 80 1019.2
20260507030516 60 0 0.0 1.7 0.00 0.00 0.00 79 1019.2
20260507030032 60 0 0.0 0.9 0.00 0.00 0.00 79 1019.2
20260507025515 60 0 0.0 0.0 0.00 0.00 0.00 78 1019.0
20260507025012 61 0 0.0 0.0 0.00 0.00 0.00 77 1018.9
20260507024532 61 0 0.0 0.0 0.00 0.00 0.00 77 1018.9
20260507024014 61 0 0.0 0.0 0.00 0.00 0.00 76 1018.7
20260507023520 62 0 0.0 0.0 0.00 0.00 0.00 75 1018.8
20260507023039 62 0 0.0 0.0 0.00 0.00 0.00 75 1018.7
20260507022516 63 0 0.0 0.0 0.00 0.00 0.00 74 1018.7
20260507022018 63 0 0.0 0.0 0.00 0.00 0.00 74 1018.7
20260507021530 64 0 0.0 4.3 0.00 0.00 0.00 73 1018.6
20260507021020 64 0 0.0 4.3 0.00 0.00 0.00 72 1018.6
20260507020516 65 0 0.0 3.5 0.00 0.00 0.00 72 1018.6
20260507020030 65 0 0.0 0.0 0.00 0.00 0.00 71 1018.6
20260507015516 65 0 0.0 0.0 0.00 0.00 0.00 71 1018.5
20260507015012 66 0 0.0 0.0 0.00 0.00 0.00 70 1018.5
20260507014540 66 0 0.0 0.0 0.00 0.00 0.00 70 1018.4
20260507014014 66 0 0.0 0.0 0.00 0.00 0.00 70 1018.4
20260507013518 66 0 0.0 2.6 0.00 0.00 0.00 69 1018.3
20260507013029 67 0 0.0 3.5 0.00 0.00 0.00 69 1018.3
20260507012515 67 0 0.0 4.3 0.00 0.00 0.00 68 1018.3
20260507012012 67 0 0.0 5.2 0.00 0.00 0.00 67 1018.3
20260507011532 68 0 0.9 5.2 0.00 0.00 0.00 67 1018.4
20260507011012 68 57 0.0 6.1 0.00 0.00 0.00 67 1018.3
20260507010515 69 0 1.7 6.1 0.00 0.00 0.00 65 1018.3
20260507010032 69 0 0.9 7.8 0.00 0.00 0.00 65 1018.2
20260507005513 69 0 0.9 7.8 0.00 0.00 0.00 65 1018.1
20260507005013 70 37 1.7 7.8 0.00 0.00 0.00 63 1018.0
20260507004536 70 71 0.0 6.1 0.00 0.00 0.00 64 1018.1
20260507004016 70 0 0.0 6.1 0.00 0.00 0.00 64 1018.1
20260507003514 71 0 0.0 7.0 0.00 0.00 0.00 62 1017.9
20260507003033 71 0 0.9 7.0 0.00 0.00 0.00 62 1017.9
20260507002513 72 45 0.9 7.8 0.00 0.00 0.00 61 1017.8
20260507002016 72 0 0.0 7.8 0.00 0.00 0.00 61 1017.7
20260507001531 73 27 0.9 7.0 0.00 0.00 0.00 60 1017.7
20260507001012 73 58 1.7 7.0 0.00 0.00 0.00 60 1017.7
20260507000512 73 102 0.0 3.5 0.00 0.00 0.00 60 1017.7
20260507000031 73 53 0.0 3.5 0.00 0.00 0.00 60 1017.6
20260506235515 73 0 0.0 3.5 0.00 0.00 0.00 60 1017.7
20260506235012 73 0 0.0 7.0 0.00 0.00 0.00 60 1017.6
20260506234537 73 0 0.0 7.0 0.00 0.00 0.00 60 1017.6
20260506234016 73 306 0.9 6.1 0.00 0.00 0.00 60 1017.7
20260506233513 74 47 0.9 6.1 0.00 0.00 0.00 59 1017.7
20260506233029 74 298 0.9 4.3 0.00 0.00 0.00 58 1017.7
20260506232512 74 314 0.0 4.3 0.00 0.00 0.00 59 1017.7
20260506232013 74 0 0.9 6.1 0.00 0.00 0.00 59 1017.8
20260506231544 74 329 0.0 7.8 0.00 0.00 0.00 59 1017.7
20260506231013 74 298 0.0 7.8 0.00 0.00 0.00 58 1017.8
20260506230516 75 329 0.9 7.8 0.00 0.00 0.00 58 1017.9
20260506230050 75 0 0.9 5.2 0.00 0.00 0.00 58 1017.8
20260506225512 75 0 0.9 7.8 0.00 0.00 0.00 57 1017.9
20260506225016 75 0 0.9 8.7 0.00 0.00 0.00 57 1017.9
20260506224535 75 271 1.7 8.7 0.00 0.00 0.00 56 1017.9
20260506224012 76 0 0.0 9.6 0.00 0.00 0.00 56 1017.9
20260506223516 76 0 0.0 9.6 0.00 0.00 0.00 56 1017.9
20260506223044 77 318 2.6 9.6 0.00 0.00 0.00 53 1018.0
20260506222514 77 40 0.9 7.8 0.00 0.00 0.00 54 1017.9
20260506222015 78 0 0.9 7.8 0.00 0.00 0.00 52 1017.9
20260506221532 78 0 0.0 1.7 0.00 0.00 0.00 52 1018.0
20260506221014 78 0 0.0 1.7 0.00 0.00 0.00 52 1017.9
20260506220518 78 0 0.0 2.6 0.00 0.00 0.00 51 1018.0
20260506220031 78 0 0.0 2.6 0.00 0.00 0.00 52 1018.2
20260506215518 78 0 0.0 3.5 0.00 0.00 0.00 50 1018.2
20260506215014 79 0 0.0 3.5 0.00 0.00 0.00 49 1018.2
20260506214532 79 74 0.0 3.5 0.00 0.00 0.00 50 1018.3
20260506214014 79 0 0.0 3.5 0.00 0.00 0.00 49 1018.4
20260506213516 78 0 0.0 5.2 0.00 0.00 0.00 52 1018.4
20260506213030 77 0 0.0 7.8 0.00 0.00 0.00 53 1018.5
20260506212512 77 169 1.7 7.8 0.00 0.00 0.00 52 1018.5
20260506212013 78 303 1.7 7.8 0.00 0.00 0.00 50 1018.6
20260506211547 78 0 0.0 6.1 0.00 0.00 0.00 51 1018.6
20260506211015 79 304 0.0 6.1 0.00 0.00 0.00 49 1018.6
20260506210512 80 0 0.0 4.3 0.00 0.00 0.00 47 1018.6
20260506210035 80 0 0.0 2.6 0.00 0.00 0.00 46 1018.7
20260506205515 79 0 0.0 0.0 0.00 0.00 0.00 48 1018.8
20260506205013 79 0 0.0 0.9 0.00 0.00 0.00 48 1018.8
20260506204531 78 0 0.0 0.9 0.00 0.00 0.00 47 1018.8
20260506204013 77 0 0.0 3.5 0.00 0.00 0.00 49 1018.9
20260506203514 76 0 0.0 3.5 0.00 0.00 0.00 50 1018.9
20260506203032 76 217 0.0 3.5 0.00 0.00 0.00 52 1018.9
20260506202513 76 179 0.0 1.7 0.00 0.00 0.00 50 1019.2
20260506202014 75 0 0.0 1.7 0.00 0.00 0.00 52 1019.3
20260506201535 75 0 0.0 4.3 0.00 0.00 0.00 50 1019.4
20260506201013 75 0 0.0 4.3 0.00 0.00 0.00 52 1019.5
20260506200512 74 0 0.0 6.1 0.00 0.00 0.00 56 1019.5
20260506200029 74 63 0.9 6.1 0.00 0.00 0.00 55 1019.5
20260506195512 74 0 0.0 3.5 0.00 0.00 0.00 54 1019.6
20260506195014 75 0 0.0 3.5 0.00 0.00 0.00 53 1019.7
20260506194531 75 0 0.0 1.7 0.00 0.00 0.00 52 1019.7
20260506194012 74 0 0.0 1.7 0.00 0.00 0.00 53 1019.8
20260506193512 74 0 0.0 0.9 0.00 0.00 0.00 54 1019.8
20260506193036 74 0 0.0 7.0 0.00 0.00 0.00 52 1019.8
20260506192516 74 0 0.0 7.0 0.00 0.00 0.00 54 1019.9
20260506192014 73 0 0.0 3.5 0.00 0.00 0.00 55 1019.9
20260506191530 73 0 0.0 2.6 0.00 0.00 0.00 57 1019.9
20260506191016 73 0 0.0 2.6 0.00 0.00 0.00 55 1019.9
20260506190516 72 0 0.0 2.6 0.00 0.00 0.00 56 1020.0
20260506190031 72 0 0.0 0.0 0.00 0.00 0.00 57 1020.0
20260506185513 71 0 0.0 0.0 0.00 0.00 0.00 57 1020.0
20260506185018 71 0 0.0 3.5 0.00 0.00 0.00 57 1020.1
20260506184531 70 0 0.0 3.5 0.00 0.00 0.00 60 1020.1
20260506184016 70 0 0.0 0.0 0.00 0.00 0.00 59 1020.2
20260506183514 70 0 0.0 0.0 0.00 0.00 0.00 58 1020.2
20260506183041 70 0 0.0 3.5 0.00 0.00 0.00 59 1020.3
20260506182512 69 0 0.0 3.5 0.00 0.00 0.00 61 1020.2
20260506182015 68 0 0.0 3.5 0.00 0.00 0.00 62 1020.2
20260506181532 68 63 0.9 5.2 0.00 0.00 0.00 61 1020.3
20260506181014 69 35 0.9 5.2 0.00 0.00 0.00 60 1020.3
20260506180514 69 0 0.0 2.6 0.00 0.00 0.00 60 1020.4
20260506180030 68 0 0.0 0.0 0.00 0.00 0.00 63 1020.4
20260506175517 68 0 0.0 0.0 0.00 0.00 0.00 64 1020.4
20260506175013 67 0 0.0 5.2 0.00 0.00 0.00 65 1020.4
20260506174531 67 0 0.9 5.2 0.00 0.00 0.00 61 1020.4
20260506174013 67 43 0.0 1.7 0.00 0.00 0.00 65 1020.3
20260506173513 67 0 0.0 1.7 0.00 0.00 0.00 64 1020.5
20260506173031 66 0 0.0 2.6 0.00 0.00 0.00 66 1020.5
20260506172513 65 0 0.0 2.6 0.00 0.00 0.00 67 1020.4
20260506172014 64 0 0.0 0.0 0.00 0.00 0.00 69 1020.5
20260506171533 64 0 0.0 2.6 0.00 0.00 0.00 69 1020.5
20260506171017 64 0 0.0 2.6 0.00 0.00 0.00 69 1020.6
20260506170515 64 0 0.0 0.0 0.00 0.00 0.00 67 1020.6
20260506170036 64 0 0.0 0.9 0.00 0.00 0.00 68 1020.6
20260506165514 64 0 0.0 0.9 0.00 0.00 0.00 69 1020.7
20260506165014 64 0 0.0 3.5 0.00 0.00 0.00 71 1020.7
20260506164531 63 0 0.0 3.5 0.00 0.00 0.00 69 1020.7
20260506164021 63 0 0.0 0.0 0.00 0.00 0.00 70 1020.7
20260506163513 62 0 0.0 0.0 0.00 0.00 0.00 72 1020.6
20260506163030 62 0 0.0 0.0 0.00 0.00 0.00 73 1020.8
20260506162513 61 0 0.0 0.0 0.00 0.00 0.00 76 1020.8
20260506162018 60 0 0.0 0.0 0.00 0.00 0.00 77 1020.7
20260506161533 59 0 0.0 0.0 0.00 0.00 0.00 78 1020.7
20260506161018 59 0 0.0 0.0 0.00 0.00 0.00 79 1020.8
20260506160515 59 0 0.0 0.0 0.00 0.00 0.00 81 1020.9
20260506160034 58 0 0.0 0.0 0.00 0.00 0.00 81 1020.9
20260506155514 58 0 0.0 0.0 0.00 0.00 0.00 80 1020.9
20260506155013 58 0 0.0 0.0 0.00 0.00 0.00 81 1020.9
20260506154534 58 0 0.0 0.0 0.00 0.00 0.00 80 1020.9
20260506154013 58 0 0.0 0.0 0.00 0.00 0.00 81 1021.0
20260506153513 58 0 0.0 0.0 0.00 0.00 0.00 80 1020.9
20260506153029 58 0 0.0 0.0 0.00 0.00 0.00 82 1020.9
20260506152513 58 0 0.0 0.0 0.00 0.00 0.00 81 1020.8
20260506152015 57 0 0.0 0.0 0.00 0.00 0.00 83 1020.8
20260506151533 57 0 0.0 0.0 0.00 0.00 0.00 84 1020.9
20260506151015 57 0 0.0 0.0 0.00 0.00 0.00 84 1020.8
20260506150514 56 0 0.0 0.0 0.00 0.00 0.00 85 1020.9
20260506150030 56 0 0.0 0.0 0.00 0.00 0.00 86 1020.9
20260506145514 56 0 0.0 0.0 0.00 0.00 0.00 85 1020.9
20260506145013 56 0 0.0 0.0 0.00 0.00 0.00 86 1020.9
20260506144536 55 0 0.0 0.0 0.00 0.00 0.00 86 1021.0
20260506144014 55 0 0.0 0.0 0.00 0.00 0.00 87 1021.0
20260506143514 55 0 0.0 0.0 0.00 0.00 0.00 87 1021.0
20260506143034 54 0 0.0 0.0 0.00 0.00 0.00 88 1021.0
20260506142518 54 0 0.0 0.0 0.00 0.00 0.00 89 1021.0
20260506142017 53 0 0.0 0.0 0.00 0.00 0.00 90 1020.9
20260506141533 53 0 0.0 0.0 0.00 0.00 0.00 90 1020.9
20260506141015 53 0 0.0 0.0 0.00 0.00 0.00 90 1021.0
20260506140515 52 0 0.0 0.0 0.00 0.00 0.00 90 1020.9
20260506140032 52 0 0.0 0.0 0.00 0.00 0.00 90 1020.8
20260506135515 52 0 0.0 0.0 0.00 0.00 0.00 90 1020.7
20260506135014 52 0 0.0 0.0 0.00 0.00 0.00 90 1020.6
20260506134533 52 0 0.0 0.0 0.00 0.00 0.00 90 1020.5
20260506134014 52 0 0.0 0.0 0.00 0.00 0.00 90 1020.5
20260506133514 52 0 0.0 0.0 0.00 0.00 0.00 90 1020.5
20260506133033 52 0 0.0 0.0 0.00 0.00 0.00 90 1020.4
20260506132514 52 0 0.0 0.0 0.00 0.00 0.00 90 1020.3
20260506132015 52 0 0.0 0.0 0.00 0.00 0.00 90 1020.3
20260506131534 52 0 0.0 0.0 0.00 0.00 0.00 90 1020.2
20260506131013 52 0 0.0 0.0 0.00 0.00 0.00 90 1020.2
20260506130517 52 0 0.0 0.0 0.00 0.00 0.00 90 1020.1
20260506130030 52 0 0.0 0.0 0.00 0.00 0.00 90 1020.2
20260506125515 52 0 0.0 0.0 0.00 0.00 0.00 90 1020.1
20260506125013 52 0 0.0 0.0 0.00 0.00 0.00 90 1020.1
20260506124530 52 0 0.0 0.0 0.00 0.00 0.00 90 1020.1
20260506124014 52 0 0.0 0.0 0.00 0.00 0.00 90 1020.1
20260506123513 52 0 0.0 0.0 0.00 0.00 0.00 90 1020.0
20260506123033 52 0 0.0 0.0 0.00 0.00 0.00 90 1020.0
20260506122513 52 0 0.0 0.0 0.00 0.00 0.00 90 1019.9
20260506122017 52 0 0.0 0.0 0.00 0.00 0.00 90 1020.0
20260506121530 52 0 0.0 0.0 0.00 0.00 0.00 90 1019.9
20260506121014 52 0 0.0 0.0 0.00 0.00 0.00 90 1019.9
20260506120514 52 0 0.0 0.0 0.00 0.00 0.00 90 1019.9
20260506120040 53 0 0.0 0.0 0.00 0.00 0.00 90 1019.9
20260506115514 53 0 0.0 0.0 0.00 0.00 0.00 90 1019.8
20260506115013 53 0 0.0 0.0 0.00 0.00 0.00 90 1019.8
20260506114532 53 0 0.0 0.0 0.00 0.00 0.00 90 1019.8
20260506114013 53 0 0.0 0.0 0.00 0.00 0.00 90 1019.8
20260506113516 53 0 0.0 0.0 0.00 0.00 0.00 90 1019.8
20260506113034 53 0 0.0 0.0 0.00 0.00 0.00 90 1019.8
20260506112514 53 0 0.0 0.0 0.00 0.00 0.00 90 1019.7
20260506112016 53 0 0.0 0.0 0.00 0.00 0.00 89 1019.7
20260506111533 53 0 0.0 0.0 0.00 0.00 0.00 89 1019.7
20260506111018 53 0 0.0 0.0 0.00 0.00 0.00 89 1019.6
20260506110513 53 0 0.0 0.0 0.00 0.00 0.00 89 1019.5
20260506110032 53 0 0.0 0.0 0.00 0.00 0.00 89 1019.5
20260506105515 53 0 0.0 0.0 0.00 0.00 0.00 90 1019.5
20260506105015 53 0 0.0 0.0 0.00 0.00 0.00 89 1019.5
20260506104532 53 0 0.0 0.0 0.00 0.00 0.00 89 1019.5
20260506104013 53 0 0.0 0.0 0.00 0.00 0.00 89 1019.5
20260506103516 53 0 0.0 0.0 0.00 0.00 0.00 89 1019.5
20260506103035 53 0 0.0 0.0 0.00 0.00 0.00 89 1019.4
20260506102514 53 0 0.0 0.0 0.00 0.00 0.00 90 1019.6
20260506102014 53 0 0.0 0.0 0.00 0.00 0.00 89 1019.5
20260506101532 53 0 0.0 0.0 0.00 0.00 0.00 89 1019.5
20260506101013 53 0 0.0 0.0 0.00 0.00 0.00 89 1019.6
20260506100513 53 0 0.0 0.0 0.00 0.00 0.00 89 1019.6
20260506100030 53 0 0.0 0.0 0.00 0.00 0.00 89 1019.5
20260506095514 53 0 0.0 0.0 0.00 0.00 0.00 89 1019.5
20260506095013 53 0 0.0 0.0 0.00 0.00 0.00 89 1019.5
20260506094533 53 0 0.0 0.0 0.00 0.00 0.00 89 1019.6
20260506094016 53 0 0.0 0.0 0.00 0.00 0.00 89 1019.6
20260506093518 53 0 0.0 0.0 0.00 0.00 0.00 89 1019.7
20260506093030 53 0 0.0 0.0 0.00 0.00 0.00 88 1019.7
20260506092514 53 0 0.0 0.0 0.00 0.00 0.00 88 1019.6
20260506092015 53 0 0.0 0.0 0.00 0.00 0.00 88 1019.5
20260506091532 53 0 0.0 0.0 0.00 0.00 0.00 88 1019.5
20260506091016 53 0 0.0 0.0 0.00 0.00 0.00 88 1019.5
20260506090513 53 0 0.0 0.0 0.00 0.00 0.00 87 1019.5
20260506090043 53 0 0.0 0.0 0.00 0.00 0.00 87 1019.4
20260506085515 53 0 0.0 0.0 0.00 0.00 0.00 87 1019.4
20260506085013 54 0 0.0 0.0 0.00 0.00 0.00 87 1019.4
20260506084530 54 0 0.0 0.0 0.00 0.00 0.00 87 1019.5
20260506084015 54 0 0.0 0.0 0.00 0.00 0.00 87 1019.6
20260506083513 54 0 0.0 0.0 0.00 0.00 0.00 87 1019.5
20260506083032 54 0 0.0 0.0 0.00 0.00 0.00 87 1019.5
20260506082514 54 0 0.0 0.0 0.00 0.00 0.00 87 1019.5
20260506082014 54 0 0.0 0.0 0.00 0.00 0.00 86 1019.5
20260506081538 54 0 0.0 0.0 0.00 0.00 0.00 86 1019.6
20260506081014 54 0 0.0 0.0 0.00 0.00 0.00 86 1019.5
20260506080514 54 0 0.0 0.0 0.00 0.00 0.00 86 1019.5
20260506073513 55 0 0.0 0.0 0.00 0.00 0.00 85 1019.4
20260506073030 55 0 0.0 0.0 0.00 0.00 0.00 85 1019.3
20260506072514 55 0 0.0 0.0 0.00 0.00 0.00 85 1019.1
20260506072014 55 0 0.0 0.0 0.00 0.00 0.00 85 1019.2
20260506071530 55 0 0.0 0.0 0.00 0.00 0.00 85 1019.3
20260506071013 55 0 0.0 0.0 0.00 0.00 0.00 85 1019.2
20260506070514 55 0 0.0 0.0 0.00 0.00 0.00 85 1019.2
20260506062515 55 0 0.0 0.0 0.00 0.00 0.00 84 1019.0
20260506062014 55 0 0.0 0.0 0.00 0.00 0.00 84 1018.8
20260506061546 55 0 0.0 0.0 0.00 0.00 0.00 83 1018.9
20260506061015 55 0 0.0 0.0 0.00 0.00 0.00 83 1018.8
20260506060514 55 0 0.0 0.0 0.00 0.00 0.00 83 1018.8